Location: Middle Street
(51.7167°N, 0.0333°E)
Time: 23:10:59
(UTC+00:00)

SJ-11-01 - Pass Details

Date: 20 January 2021
Orbit: 684 x 701 km, 98.0° (Epoch: 01 March)

Event Time Altitude Azimuth Distance (km) Brightness Sun altitude
Rises 18:48:49 0° 169° (S) 3,058 7.6 -21.3°
Reaches altitude 10° 18:51:04 10° 171° (S) 2,143 6.8 -21.6°
Maximum altitude 18:55:45 73° 257° (WSW) 726 4.4 -22.4°
Drops below altitude 10° 19:00:27 10° 343° (NNW) 2,150 7.0 -23.1°
Sets 19:02:43 0° 345° (NNW) 3,069 7.8 -23.4°
